Regional Weather Roundup
Issued by NWS

Home | Current Version | Previous Version | Text Only | Print | Product List | Glossary On
Versions: 1 2 3 4 5 6 7 8 9 10 11 12 13 14 15 16 17 18 19 20 21 22 23 24 25 26 27 28 29 30 31 32 33 34 35 36 37 38 39 40 41 42 43 44 45 46 47 48 49 50
000
ASUS42 KKEY 072210
RWRKEY

FLORIDA REGIONAL WEATHER ROUNDUP FOR THE FLORIDA KEYS
NATIONAL WEATHER SERVICE KEY WEST FLORIDA
500 PM EST SUN FEB 07 2016

...SOUTH FLORIDA AND THE KEYS...

CITY           SKY/WX    TMP DP  RH WIND       PRES   REMARKS
FORT MYERS     SUNNY     57  38  48 NW21G26   30.04R
SW REGIONAL AP SUNNY     58  38  47 W13G23    30.05R
NAPLES         SUNNY     58  41  53 NW18G25   30.06R
MIAMI          MOSUNNY   63  36  36 W8G18     30.01R
WEST KENDALL   SUNNY     63  42  46 W18       30.01R
HOMESTEAD      SUNNY     63  40  43 W15       30.01R
MARATHON       MOSUNNY   60  48  64 NW17G28   30.06S
BOCA CHICA NAS MOSUNNY   62  48  60 NW18G28   30.07S
KEY WEST INTL  MOSUNNY   63  52  67 N17G26    30.07S

...INTERNATIONAL WEATHER...

CITY           SKY/WX    TMP DP  RH WIND       PRES   REMARKS
NASSAU BAHAMAS MOSUNNY   70  43  37 W14       29.96R
CANCUN MEXICO  PTSUNNY   72  55  56 NW12      30.10F
COZUMEL MEXICO PTSUNNY   68  55  64 N15       30.10S

ADJACENT COASTAL WATERS...

STATION/POSITION TIME  SKY/WX   TEMP    WIND        PRES    WAVE
                                AIR SEA DIR/SP/G            HT/PER
                 (UTC)          (F)     (DEG/KT/KT) (MB)    (FT/S)
PULASKI SHOAL LI NOT AVBL
SAND KEY         2150            62     350/ 25/ 28 1018.5R
SOMBRERO KEY     NOT AVBL
LONG KEY         2100            60 67  330/ 26/ 31 1018.0R
MOLASSES REEF    2200            60 76  300/ 23/ 26 1016.4R
FOWEY ROCKS      NOT AVBL

$$



USA.gov is the U.S. government's official web portal to all federal, state and local government web resources and services.